Current weather by "City, St" or "zip code"  
 

Current Conditions: Pineville, Kee Field Airport, WV

Fog/Mist


64.0 F

Last Updated on Sep 18 2020, 3:55 am EDT
Humidity: 99%
Wind Speed: mph
Barometer 30.01 in
Dewpoint: 63.9 F
Visibility: 5.00 mi
Precip: --
Heat Index: NA
Wind Chill: NA
Current conditions at:

Pineville, Kee Field Airport, WV (KI16)

Lat: 37.60028 Lon: 81.55917

Local Radar Image active severe weather and emergency alerts image image weather storm and storm spotter reports image weather observation monitoring service image
Local
Radar
Active
Alerts
Storm Reports Obs
Monitoring

Sign-up For Email & Text Message Weather Alert Notification Services



Advertise Here

Observation History for Pineville, Kee Field Airport, WV


Time Wind
(mph)
Vis
(mi)
Weather Precip (in) Temperature (F) Relative
Humidity
Wind
Chill
(F)
Heat
Index
(F)
Pressure
Air Dwpt altimeter
(in)
sea level
(mb)
Rmks
3:55 am EDT 5.00 Fog/Mist -- 64.0 63.9 99% NA NA 30.01 M
2:55 am EDT 4.00 Fog/Mist -- 64.0 63.5 99% NA NA 30.01 M
1:55 am EDT 5.00 Fog/Mist -- 64.0 63.9 98% NA NA 30.00 M
12:55 am EDT 5.00 Fog/Mist -- 64.0 64.0 99% NA NA 30.01 M
11:55 pm EDT 5.00 Fog/Mist -- 65.0 64.6 99% NA NA 30.02 M
10:55 pm EDT 7.00 Overcast -- 65.0 64.8 98% NA NA 30.02 M
9:55 pm EDT 7.00 Overcast -- 66.0 65.3 98% NA NA 30.02 M
8:55 pm EDT 10.00 Overcast -- 66.0 65.3 98% NA NA 30.01 M
7:55 pm EDT 10.00 Overcast -- 66.0 65.3 96% NA NA 30.00 M
6:55 pm EDT 10.00 Light Drizzle -- 67.0 66.2 96% NA NA 29.99 M
5:55 pm EDT 10.00 Light Rain -- 68.0 67.3 98% NA NA 29.98 M
4:55 pm EDT 10.00 Drizzle -- 68.0 66.2 93% NA NA 29.98 M
3:55 pm EDT 10.00 Rain -- 68.0 66.9 96% NA NA 29.99 M
2:55 pm EDT 7.00 Light Rain -- 67.0 66.2 96% NA NA 30.02 M
1:55 pm EDT 4.00 Rain -- 67.0 65.8 96% NA NA 30.04 M
12:55 pm EDT 5.00 Rain -- 66.0 64.6 95% NA NA 30.06 M
11:55 am EDT 10.00 Light Rain -- 65.0 62.8 91% NA NA 30.08 M
10:55 am EDT 10.00 Light Drizzle -- 65.0 61.7 88% NA NA 30.09 M
9:55 am EDT 10.00 Light Rain -- 63.0 61.0 94% NA NA 30.09 M
8:55 am EDT 10.00 Fair -- 61.0 59.5 96% NA NA 30.07 M
7:55 am EDT 10.00 Fair -- 59.0 58.5 97% NA NA 30.07 M
6:55 am EDT 10.00 Fair -- 59.0 58.3 97% NA NA 30.07 M
5:55 am EDT 10.00 Fair -- 59.0 58.1 98% NA NA 30.08 M
4:55 am EDT 3.00 Fog/Mist -- 58.0 58.1 99% NA NA 30.09 M

Regional Weather Observation


Beckley, Raleigh County Memorial Airport, WV (KBKW)

Fog/Mist
61.0 F

Bluefield, Mercer County Airport, WV (KBLF)

Overcast
59.0 F

Tazewell County Airport, VA (KJFZ)

Overcast
60.0 F

Charleston, Yeager Airport, WV (KCRW)

Mostly Cloudy
63.0 F

Huntington, Tri-State Airport, WV (KHTS)

Fair
59.0 F

Point Pleasant, Mason County Airport, WV (K3I2)

Mostly Cloudy
59.0 F